Weather History for HEGN - March, 2013

Change the Weather History Date:

Thursday, March 28, 2013

  Actual Average Record
Temperature  
Mean Temperature 74 °F -  
Max Temperature 87 °F 81 °F 93 °F (2015)
Min Temperature 61 °F 64 °F 57 °F (2003)
Cooling Degree Days 9    
Growing Degree Days 24 (Base 50)    
Moisture  
Dew Point 43 °F    
Average Humidity 33    
Maximum Humidity 61    
Minimum Humidity 13    
Precipitation  
Precipitation 0.00 in - - ()
Sea Level Pressure  
Sea Level Pressure 29.93 in    
Wind  
Wind Speed 11 mph ()    
Max Wind Speed 17 mph    
Max Gust Speed -    
Visibility 6.0 miles    
Events      
Averages and records for this station are not official NWS values.
T = Trace of Precipitation, MM = Missing Value Source: Averaged Metar Reports

Daily Weather History Graph

Daily Weather History Graph

Search for Another Location

Airport or City:

Trip Planner

Search our weather history database for the weather conditions in past years. The results will help you decide how hot, cold, wet, or windy it might be!

Date:

Astronomy

Mar. 28, 2013 Rise Set
Actual Time 5:39 AM EET 6:00 PM EET
Civil Twilight 5:16 AM EET 6:23 PM EET
Nautical Twilight 4:49 AM EET 6:50 PM EET
Astronomical Twilight 4:21 AM EET 7:18 PM EET
Moon 7:16 PM EET (3/28) 6:03 AM EET (3/28)
Length of Visible Light 13h 06m
Length of Day
12h 20m
Full, 99% of the Moon is Illuminated
Mar 28
Full
Apr 3
Last Quarter
Apr 10
New
Apr 18
First Quarter
Apr 25
Full

Hourly Weather History & Observations

Time (EET) Temp. Dew Point Humidity Pressure Visibility Wind Dir Wind Speed Gust Speed Precip Events Conditions
12:00 AM 69.8 °F 37.4 °F 31% 29.95 in - WNW 13.8 mph - N/A   Clear
1:00 AM 69.8 °F 37.4 °F 31% 29.92 in - WNW 15.0 mph - N/A   Clear
2:00 AM 68 °F 40 °F 25% 29.94 in 6 mi NW 17.3 mph - -  
2:00 AM 68.0 °F 41.0 °F 37% 29.92 in - NW 17.3 mph - N/A   Clear
3:00 AM 66.2 °F 39.2 °F 37% 29.92 in - WNW 13.8 mph - N/A   Clear
4:00 AM 64.4 °F 39.2 °F 40% 29.92 in - NW 11.5 mph - N/A   Clear
5:00 AM 57.2 °F 37.4 °F 48% 29.92 in - NW 12.7 mph - N/A   Clear
6:00 AM 62.6 °F 37.4 °F 39% 29.95 in - NW 9.2 mph - N/A   Clear
7:00 AM 66.2 °F 39.2 °F 37% 29.95 in - NW 10.4 mph - N/A   Clear
8:00 AM 71 °F 43 °F 25% 29.99 in 6 mi North 11.5 mph - -  
8:00 AM 69.8 °F 42.8 °F 38% 29.98 in - North 11.5 mph - N/A   Clear
9:00 AM 73.4 °F 41.0 °F 31% 29.98 in - NNW 10.4 mph - N/A   Clear
10:00 AM 77.0 °F 46.4 °F 34% 29.98 in - North 15.0 mph - N/A   Clear
11:00 AM 78.8 °F 44.6 °F 30% 29.98 in - North 17.3 mph - N/A   Clear
12:00 PM 82.4 °F 42.8 °F 25% 29.95 in - NNE 12.7 mph - N/A   Clear
12:33 PM 82.4 °F 42.8 °F 25% 29.95 in - NNE 12.7 mph - N/A   Clear
1:00 PM 86.0 °F 42.8 °F 22% 29.92 in - North 11.5 mph - N/A   Clear
2:00 PM 87 °F 44 °F 13% 29.90 in 6 mi North 11.5 mph - -   Clear
2:00 PM 87.8 °F 44.6 °F 22% 29.89 in - North 11.5 mph - N/A   Clear
3:00 PM 86.0 °F 48.2 °F 27% 29.86 in - NNE 10.4 mph - N/A   Clear
4:00 PM 86.0 °F 48.2 °F 27% 29.86 in - North 9.2 mph - N/A   Clear
5:00 PM 84.2 °F 51.8 °F 33% 29.86 in - North 11.5 mph - N/A   Clear
6:00 PM 77.0 °F 60.8 °F 57% 29.89 in - North 13.8 mph - N/A   Clear
7:00 PM 73.4 °F 59.0 °F 61% 29.89 in - North 6.9 mph - N/A   Clear
8:00 PM 72 °F 49 °F 34% 29.92 in 6 mi NNW 9.2 mph - -  
8:00 PM 71.6 °F 50.0 °F 46% 29.92 in - NNW 9.2 mph - N/A   Clear
9:00 PM 71.6 °F 41.0 °F 33% 29.92 in - NW 9.2 mph - N/A   Clear
10:00 PM 69.8 °F 35.6 °F 28% 29.92 in - WNW 5.8 mph - N/A   Clear
11:00 PM 69.8 °F 33.8 °F 27% 29.92 in - WNW 12.7 mph - N/A   Clear